Regional Weather Roundup
Issued by NWS

Home | Current Version | Previous Version | Graphics & Text | Print | Product List | Glossary On
Versions: 1 2 3 4 5 6 7 8 9 10 11 12 13 14 15 16 17 18 19 20 21 22 23 24 25 26 27 28 29 30 31 32 33 34 35 36 37 38 39 40 41 42 43 44 45 46 47 48 49 50
000
ASUS45 KBOI 252110
RWRID

IDAHO REGIONAL WEATHER ROUNDUP
NATIONAL WEATHER SERVICE BOISE ID
300 PM MDT MON MAY 25 2015

NOTE: "FAIR" INDICATES FEW OR NO CLOUDS BELOW 12000 FEET
WITH NO SIGNIFICANT WEATHER AND/OR OBSTRUCTIONS TO VISIBILITY

IDZ012-014-252200-
SOUTHWEST IDAHO


CITY           SKY/WX    TMP DP  RH WIND       PRES   REMARKS
BOISE          MOSUNNY   77  40  26 NW6       29.83F
CALDWELL       PTSUNNY   72  43  35 W20       29.85S
$$

IDZ016-017-252200-
SOUTHCENTRAL IDAHO


CITY           SKY/WX    TMP DP  RH WIND       PRES   REMARKS
BURLEY         MOSUNNY   70  44  39 CALM      29.89F
JEROME         MOSUNNY   70  42  36 VRB6      29.90F
TWIN FALLS     MOSUNNY   69  48  47 S14       29.89S
$$

IDZ019>023-252200-
SOUTHEAST IDAHO


CITY           SKY/WX    TMP DP  RH WIND       PRES   REMARKS
IDAHO FALLS    PTSUNNY   65  44  46 SW9       29.92F
POCATELLO      MOSUNNY   69  42  37 W10       29.92F
REXBURG        SUNNY     64  42  44 VRB5      29.92F
$$

IDZ006-010-011-018-031-032-252200-
CENTRAL IDAHO MOUNTAINS


CITY           SKY/WX    TMP DP  RH WIND       PRES   REMARKS
MCCALL         LGT RAIN  58  40  51 W14G25    29.91R
HAILEY         PTSUNNY   64  45  48 E5        29.94F
STANLEY          N/A     59  34  39 VRB5      29.96F
SALMON         PTSUNNY   64  43  45 SW10      29.86F
CHALLIS        PTSUNNY   68  35  29 CALM      29.87F
$$

IDZ002-004-006-007-026-252200-
NORTHERN IDAHO


CITY           SKY/WX    TMP DP  RH WIND       PRES   REMARKS
LEWISTON       CLOUDY    71  49  45 VRB6      29.88F
LOWELL           N/A     71  50  47 VRB3      29.84R
COEUR D`ALENE  CLOUDY    63  52  67 W6        29.89F
MULLAN PASS    CLOUDY    45  44  97 CALM      29.99R
$$



USA.gov is the U.S. government's official web portal to all federal, state and local government web resources and services.